| time (UTC) | temp F | wind direction | speed MPH | gust MPH | rain 1hr in | rain 24hr in | rain mn in | humidity % | barometer mb |
| 20260906110230 | 59 | 162 | 0.0 | 3.0 | 0.00 | 0.57 | 0.00 | 75 | 1010.9 |
| 20260906105225 | 59 | 162 | 2.0 | 4.0 | 0.00 | 0.57 | 0.00 | 75 | 1010.7 |
| 20260906104225 | 59 | 162 | 0.0 | 0.0 | 0.00 | 0.57 | 0.00 | 75 | 1010.6 |
| 20260906103221 | 59 | 162 | 0.0 | 0.0 | 0.00 | 0.57 | 0.00 | 74 | 1010.6 |
| 20260906102226 | 59 | 162 | 1.0 | 5.0 | 0.00 | 0.57 | 0.00 | 76 | 1010.5 |
| 20260906101231 | 59 | 162 | 0.0 | 3.0 | 0.00 | 0.57 | 0.00 | 76 | 1010.6 |
| 20260906100234 | 59 | 162 | 0.0 | 1.0 | 0.00 | 0.57 | 0.00 | 76 | 1010.6 |
| 20260906095224 | 59 | 162 | 1.0 | 3.0 | 0.00 | 0.57 | 0.00 | 75 | 1010.6 |
| 20260906094236 | 60 | 162 | 2.0 | 4.0 | 0.00 | 0.57 | 0.00 | 75 | 1010.6 |
| 20260906093252 | 60 | 162 | 0.0 | 0.0 | 0.00 | 0.57 | 0.00 | 77 | 1010.6 |
| 20260906092234 | 60 | 162 | 0.0 | 0.0 | 0.00 | 0.57 | 0.00 | 76 | 1010.5 |
| 20260906091223 | 60 | 162 | 0.0 | 0.0 | 0.00 | 0.57 | 0.00 | 77 | 1010.5 |
| 20260906090229 | 60 | 162 | 2.0 | 4.0 | 0.00 | 0.57 | 0.00 | 74 | 1010.5 |
| 20260906085235 | 61 | 162 | 3.0 | 5.0 | 0.00 | 0.57 | 0.00 | 73 | 1010.3 |
| 20260906084221 | 61 | 162 | 3.0 | 5.0 | 0.00 | 0.57 | 0.00 | 73 | 1010.3 |
| 20260906083223 | 61 | 162 | 0.0 | 3.0 | 0.00 | 0.57 | 0.00 | 74 | 1010.3 |
| 20260906082228 | 60 | 162 | 2.0 | 4.0 | 0.00 | 0.57 | 0.00 | 76 | 1010.5 |
| 20260906081232 | 60 | 162 | 3.0 | 6.0 | 0.00 | 0.57 | 0.00 | 77 | 1010.5 |
| 20260906080229 | 60 | 165 | 3.0 | 4.0 | 0.00 | 0.57 | 0.00 | 79 | 1010.5 |
| 20260906075248 | 61 | 165 | 4.0 | 6.0 | 0.00 | 0.57 | 0.00 | 77 | 1010.5 |
| 20260906074234 | 60 | 164 | 5.0 | 6.0 | 0.00 | 0.57 | 0.00 | 77 | 1010.5 |
| 20260906073227 | 60 | 164 | 3.0 | 6.0 | 0.00 | 0.57 | 0.00 | 81 | 1010.5 |
| 20260906072230 | 60 | 163 | 3.0 | 6.0 | 0.00 | 0.57 | 0.00 | 82 | 1010.5 |
| 20260906071238 | 60 | 150 | 1.0 | 3.0 | 0.00 | 0.57 | 0.00 | 85 | 1010.3 |
| 20260906070227 | 59 | 150 | 2.0 | 5.0 | 0.00 | 0.57 | 0.00 | 87 | 1010.3 |
| 20260906065231 | 59 | 148 | 3.0 | 5.0 | 0.00 | 0.57 | 0.00 | 89 | 1010.2 |
| 20260906064218 | 59 | 138 | 1.0 | 4.0 | 0.00 | 0.57 | 0.00 | 89 | 1010.5 |
| 20260906063229 | 59 | 130 | 1.0 | 3.0 | 0.01 | 0.57 | 0.00 | 90 | 1010.5 |
| 20260906062238 | 59 | 128 | 0.0 | 3.0 | 0.05 | 0.57 | 0.00 | 89 | 1010.6 |
| 20260906061221 | 59 | 128 | 2.0 | 5.0 | 0.41 | 0.57 | 0.00 | 89 | 1010.6 |
| 20260906060228 | 59 | 45 | 0.0 | 2.0 | 0.57 | 0.57 | 0.00 | 89 | 1010.6 |
| 20260906055229 | 58 | 45 | 3.0 | 8.0 | 0.57 | 0.57 | 0.57 | 88 | 1010.8 |
| 20260906054238 | 58 | 45 | 5.0 | 11.0 | 0.57 | 0.57 | 0.57 | 87 | 1011.2 |
| 20260906053226 | 59 | 19 | 5.0 | 10.0 | 0.56 | 0.56 | 0.56 | 84 | 1011.2 |
| 20260906052235 | 59 | 19 | 13.0 | 28.0 | 0.51 | 0.51 | 0.51 | 78 | 1013.2 |
| 20260906051222 | 66 | 167 | 21.0 | 27.0 | 0.13 | 0.13 | 0.13 | 51 | 1010.6 |
| 20260906050230 | 73 | 85 | 0.0 | 0.0 | 0.00 | 0.00 | 0.00 | 43 | 1010.6 |
| 20260906045233 | 74 | 84 | 0.0 | 1.0 | 0.00 | 0.00 | 0.00 | 34 | 1010.7 |
| 20260906044239 | 74 | 84 | 0.0 | 3.0 | 0.00 | 0.00 | 0.00 | 33 | 1011.1 |
| 20260906043257 | 75 | 86 | 0.0 | 1.0 | 0.00 | 0.00 | 0.00 | 31 | 1011.1 |
| 20260906042228 | 76 | 87 | 1.0 | 5.0 | 0.00 | 0.00 | 0.00 | 29 | 1010.8 |
| 20260906041221 | 77 | 360 | 3.0 | 4.0 | 0.00 | 0.00 | 0.00 | 28 | 1010.7 |
| 20260906040228 | 77 | 85 | 1.0 | 10.0 | 0.00 | 0.00 | 0.00 | 27 | 1010.7 |
| 20260906035228 | 77 | 150 | 4.0 | 11.0 | 0.00 | 0.00 | 0.00 | 28 | 1010.6 |
| 20260906034233 | 75 | 151 | 6.0 | 13.0 | 0.00 | 0.00 | 0.00 | 29 | 1010.0 |
| 20260906033226 | 74 | 360 | 2.0 | 3.0 | 0.00 | 0.00 | 0.00 | 31 | 1010.0 |
| 20260906032228 | 75 | 5 | 1.0 | 3.0 | 0.00 | 0.00 | 0.00 | 28 | 1009.9 |
| 20260906031217 | 76 | 5 | 0.0 | 2.0 | 0.00 | 0.00 | 0.00 | 28 | 1009.4 |
| 20260906030245 | 77 | 5 | 0.0 | 3.0 | 0.00 | 0.00 | 0.00 | 27 | 1009.4 |
| 20260906025224 | 77 | 5 | 4.0 | 5.0 | 0.00 | 0.00 | 0.00 | 26 | 1009.3 |
| 20260906024235 | 76 | 5 | 4.0 | 8.0 | 0.00 | 0.00 | 0.00 | 27 | 1009.3 |
| 20260906023240 | 74 | 167 | 1.0 | 5.0 | 0.00 | 0.00 | 0.00 | 28 | 1009.3 |
| 20260906022235 | 74 | 167 | 1.0 | 3.0 | 0.00 | 0.00 | 0.00 | 28 | 1009.2 |
| 20260906021301 | 74 | 167 | 1.0 | 2.0 | 0.00 | 0.00 | 0.00 | 27 | 1008.8 |
| 20260906020229 | 74 | 167 | 0.0 | 3.0 | 0.00 | 0.00 | 0.00 | 28 | 1008.8 |
| 20260906015233 | 75 | 167 | 3.0 | 5.0 | 0.00 | 0.00 | 0.00 | 28 | 1008.7 |
| 20260906014238 | 76 | 167 | 3.0 | 4.0 | 0.00 | 0.00 | 0.00 | 26 | 1008.6 |
| 20260906013226 | 78 | 360 | 3.0 | 4.0 | 0.00 | 0.00 | 0.00 | 25 | 1008.6 |
| 20260906012230 | 80 | 360 | 3.0 | 7.0 | 0.00 | 0.00 | 0.00 | 23 | 1008.5 |
| 20260906011234 | 81 | 166 | 4.0 | 5.0 | 0.00 | 0.00 | 0.00 | 23 | 1008.4 |
| 20260906010258 | 83 | 166 | 3.0 | 5.0 | 0.00 | 0.00 | 0.00 | 22 | 1008.4 |
| 20260906005226 | 84 | 166 | 3.0 | 6.0 | 0.00 | 0.00 | 0.00 | 21 | 1008.6 |
| 20260906004234 | 86 | 165 | 2.0 | 5.0 | 0.00 | 0.00 | 0.00 | 20 | 1008.6 |
| 20260906003239 | 87 | 163 | 3.0 | 7.0 | 0.00 | 0.00 | 0.00 | 19 | 1008.6 |
| 20260906002230 | 87 | 145 | 1.0 | 2.0 | 0.00 | 0.00 | 0.00 | 18 | 1008.5 |
| 20260906001237 | 87 | 103 | 0.0 | 3.0 | 0.00 | 0.00 | 0.00 | 19 | 1008.4 |
| 20260906000241 | 88 | 103 | 0.0 | 7.0 | 0.00 | 0.00 | 0.00 | 17 | 1008.4 |
| 20260905235222 | 89 | 127 | 1.0 | 4.0 | 0.00 | 0.00 | 0.00 | 16 | 1008.3 |
| 20260905234258 | 90 | 120 | 3.0 | 6.0 | 0.00 | 0.00 | 0.00 | 16 | 1008.2 |
| 20260905233222 | 88 | 130 | 2.0 | 7.0 | 0.00 | 0.00 | 0.00 | 17 | 1008.2 |
| 20260905232226 | 91 | 110 | 2.0 | 7.0 | 0.00 | 0.00 | 0.00 | 15 | 1008.2 |
| 20260905231231 | 91 | 84 | 2.0 | 7.0 | 0.00 | 0.00 | 0.00 | 15 | 1008.2 |
| 20260905230235 | 92 | 45 | 4.0 | 7.0 | 0.00 | 0.00 | 0.00 | 14 | 1008.2 |
| 20260905225223 | 94 | 87 | 4.0 | 7.0 | 0.00 | 0.00 | 0.00 | 14 | 1008.1 |
| 20260905224229 | 93 | 355 | 1.0 | 4.0 | 0.00 | 0.00 | 0.00 | 14 | 1008.3 |
| 20260905223236 | 91 | 15 | 3.0 | 7.0 | 0.00 | 0.00 | 0.00 | 16 | 1008.3 |
| 20260905222241 | 91 | 5 | 5.0 | 9.0 | 0.00 | 0.00 | 0.00 | 15 | 1008.4 |
| 20260905221229 | 91 | 71 | 3.0 | 9.0 | 0.00 | 0.00 | 0.00 | 16 | 1008.4 |
| 20260905220238 | 92 | 12 | 5.0 | 9.0 | 0.00 | 0.00 | 0.00 | 14 | 1008.4 |
| 20260905215225 | 91 | 323 | 4.0 | 13.0 | 0.00 | 0.00 | 0.00 | 15 | 1008.7 |
| 20260905214228 | 90 | 17 | 7.0 | 11.0 | 0.00 | 0.00 | 0.00 | 15 | 1008.7 |
| 20260905213223 | 90 | 294 | 4.0 | 11.0 | 0.00 | 0.00 | 0.00 | 16 | 1008.7 |
| 20260905212230 | 91 | 360 | 7.0 | 12.0 | 0.00 | 0.00 | 0.00 | 15 | 1008.8 |
| 20260905211239 | 92 | 27 | 8.0 | 12.0 | 0.00 | 0.00 | 0.00 | 15 | 1009.0 |
| 20260905210231 | 92 | 51 | 7.0 | 12.0 | 0.00 | 0.00 | 0.00 | 15 | 1009.0 |
| 20260905205241 | 93 | 336 | 6.0 | 13.0 | 0.00 | 0.00 | 0.00 | 15 | 1009.2 |
| 20260905204223 | 92 | 40 | 2.0 | 8.0 | 0.00 | 0.00 | 0.00 | 15 | 1009.4 |
| 20260905203244 | 93 | 46 | 6.0 | 13.0 | 0.00 | 0.00 | 0.00 | 14 | 1009.4 |
| 20260905202229 | 91 | 30 | 8.0 | 15.0 | 0.00 | 0.00 | 0.00 | 17 | 1009.5 |
| 20260905201236 | 91 | 21 | 6.0 | 14.0 | 0.00 | 0.00 | 0.00 | 16 | 1009.7 |
| 20260905200226 | 91 | 25 | 5.0 | 14.0 | 0.00 | 0.00 | 0.00 | 16 | 1009.7 |
| 20260905195235 | 91 | 83 | 4.0 | 10.0 | 0.00 | 0.00 | 0.00 | 16 | 1009.9 |
| 20260905194246 | 90 | 36 | 6.0 | 14.0 | 0.00 | 0.00 | 0.00 | 17 | 1009.9 |
| 20260905193246 | 91 | 5 | 7.0 | 16.0 | 0.00 | 0.00 | 0.00 | 16 | 1009.9 |
| 20260905192229 | 91 | 86 | 5.0 | 13.0 | 0.00 | 0.00 | 0.00 | 16 | 1010.0 |
| 20260905191235 | 91 | 83 | 6.0 | 12.0 | 0.00 | 0.00 | 0.00 | 17 | 1010.1 |
| 20260905190223 | 90 | 90 | 6.0 | 13.0 | 0.00 | 0.00 | 0.00 | 17 | 1010.1 |
| 20260905185226 | 89 | 53 | 3.0 | 10.0 | 0.00 | 0.00 | 0.00 | 18 | 1010.3 |
| 20260905184234 | 89 | 42 | 8.0 | 11.0 | 0.00 | 0.00 | 0.00 | 18 | 1010.4 |
| 20260905183303 | 89 | 61 | 6.0 | 13.0 | 0.00 | 0.00 | 0.00 | 19 | 1010.4 |
| 20260905182246 | 89 | 40 | 5.0 | 9.0 | 0.00 | 0.00 | 0.00 | 18 | 1010.6 |
| 20260905181251 | 88 | 80 | 5.0 | 12.0 | 0.00 | 0.00 | 0.00 | 19 | 1010.7 |
| 20260905180238 | 88 | 87 | 4.0 | 11.0 | 0.00 | 0.00 | 0.00 | 19 | 1010.7 |
| 20260905175223 | 88 | 56 | 7.0 | 13.0 | 0.00 | 0.00 | 0.00 | 19 | 1010.8 |
| 20260905174251 | 88 | 37 | 6.0 | 11.0 | 0.00 | 0.00 | 0.00 | 18 | 1010.8 |
| 20260905173239 | 87 | 38 | 1.0 | 9.0 | 0.00 | 0.00 | 0.00 | 19 | 1010.8 |
| 20260905172219 | 86 | 13 | 3.0 | 9.0 | 0.00 | 0.00 | 0.00 | 19 | 1010.9 |
| 20260905171236 | 87 | 9 | 6.0 | 10.0 | 0.00 | 0.00 | 0.00 | 20 | 1010.6 |
| 20260905170240 | 86 | 16 | 1.0 | 7.0 | 0.00 | 0.00 | 0.00 | 20 | 1010.6 |
| 20260905165224 | 86 | 360 | 3.0 | 6.0 | 0.00 | 0.00 | 0.00 | 19 | 1010.6 |
| 20260905164223 | 86 | 284 | 1.0 | 6.0 | 0.00 | 0.00 | 0.00 | 20 | 1010.6 |
| 20260905163227 | 86 | 280 | 2.0 | 7.0 | 0.00 | 0.00 | 0.00 | 19 | 1010.6 |
| 20260905162233 | 85 | 275 | 3.0 | 8.0 | 0.00 | 0.00 | 0.00 | 19 | 1010.6 |
| 20260905161231 | 84 | 276 | 2.0 | 5.0 | 0.00 | 0.00 | 0.00 | 20 | 1010.6 |
| 20260905160259 | 83 | 268 | 3.0 | 6.0 | 0.00 | 0.00 | 0.00 | 22 | 1010.6 |
| 20260905155242 | 82 | 278 | 3.0 | 4.0 | 0.00 | 0.00 | 0.00 | 22 | 1010.6 |
| 20260905154223 | 80 | 279 | 0.0 | 5.0 | 0.00 | 0.00 | 0.00 | 23 | 1010.6 |
| 20260905153225 | 79 | 278 | 3.0 | 6.0 | 0.00 | 0.00 | 0.00 | 23 | 1010.6 |
| 20260905152231 | 78 | 240 | 0.0 | 3.0 | 0.00 | 0.00 | 0.00 | 25 | 1010.6 |
| 20260905151231 | 77 | 240 | 2.0 | 4.0 | 0.00 | 0.00 | 0.00 | 28 | 1010.6 |
| 20260905150238 | 76 | 239 | 2.0 | 6.0 | 0.00 | 0.00 | 0.00 | 26 | 1010.6 |
| 20260905145224 | 75 | 236 | 3.0 | 6.0 | 0.00 | 0.00 | 0.00 | 27 | 1010.7 |
| 20260905144227 | 74 | 242 | 3.0 | 6.0 | 0.00 | 0.00 | 0.00 | 28 | 1010.7 |
| 20260905143243 | 73 | 228 | 2.0 | 6.0 | 0.00 | 0.00 | 0.00 | 32 | 1010.7 |
| 20260905142227 | 72 | 360 | 3.0 | 5.0 | 0.00 | 0.00 | 0.00 | 35 | 1010.6 |
| 20260905141230 | 71 | 227 | 2.0 | 6.0 | 0.00 | 0.00 | 0.00 | 36 | 1010.6 |
| 20260905140258 | 69 | 221 | 3.0 | 7.0 | 0.00 | 0.00 | 0.00 | 38 | 1010.6 |
| 20260905135224 | 68 | 209 | 3.0 | 6.0 | 0.00 | 0.00 | 0.00 | 40 | 1010.5 |
| 20260905134232 | 67 | 360 | 2.0 | 5.0 | 0.00 | 0.00 | 0.00 | 41 | 1010.3 |
| 20260905133233 | 66 | 360 | 3.0 | 5.0 | 0.00 | 0.00 | 0.00 | 43 | 1010.3 |
| 20260905132239 | 66 | 185 | 5.0 | 7.0 | 0.00 | 0.00 | 0.00 | 44 | 1010.3 |
| 20260905131230 | 65 | 189 | 4.0 | 5.0 | 0.00 | 0.00 | 0.00 | 44 | 1010.0 |
| 20260905130247 | 65 | 189 | 4.0 | 7.0 | 0.00 | 0.00 | 0.00 | 45 | 1010.0 |
| 20260905125228 | 65 | 202 | 4.0 | 7.0 | 0.00 | 0.00 | 0.00 | 44 | 1009.9 |
| 20260905124235 | 66 | 203 | 5.0 | 11.0 | 0.00 | 0.00 | 0.00 | 44 | 1009.7 |
| 20260905123239 | 66 | 219 | 6.0 | 9.0 | 0.00 | 0.00 | 0.00 | 43 | 1009.7 |
| 20260905122227 | 66 | 194 | 5.0 | 12.0 | 0.00 | 0.00 | 0.00 | 43 | 1009.4 |
| 20260905121249 | 65 | 205 | 7.0 | 11.0 | 0.00 | 0.00 | 0.00 | 43 | 1009.4 |
| 20260905120231 | 65 | 207 | 7.0 | 10.0 | 0.00 | 0.00 | 0.00 | 43 | 1009.4 |
| 20260905115237 | 65 | 180 | 7.0 | 11.0 | 0.00 | 0.00 | 0.00 | 44 | 1009.3 |
| 20260905114250 | 65 | 185 | 7.0 | 10.0 | 0.00 | 0.00 | 0.00 | 46 | 1009.4 |
| 20260905113230 | 65 | 205 | 0.0 | 5.0 | 0.00 | 0.00 | 0.00 | 53 | 1009.4 |
| 20260905112232 | 65 | 204 | 3.0 | 7.0 | 0.00 | 0.00 | 0.00 | 48 | 1009.3 |
| 20260905111253 | 65 | 191 | 5.0 | 7.0 | 0.00 | 0.00 | 0.00 | 49 | 1009.3 |